User: anonymous   Login
Location: Potawatomi Wildlife Park
(41.2308°N, 86.1050°W)
Time: 18:14:48
(UTC-04:00)
Language:

SL-16 R/B - Orbit

View from above orbital plane
View from above orbital plane
View from above satellite
View from above satellite

Ground track
Ground track

The orbit data is extracted from the following two-line orbital elements,

1 27006U 01056F   15117.11208647  .00000033  00000-0  84160-4 0  9990
2 27006 099.2004 276.0782 0014566 187.6015 303.2736 13.70952543669333
Epoch (UTC): 27 April 2015 02:41:24
Eccentricity: 0.0014566
inclination: 99.2004°
perigee height: 985 km
apogee height: 1007 km
right ascension of ascending node: 276.0782°
argument of perigee: 187.6015°
revolutions per day: 13.70952543
mean anomaly at epoch: 303.2736°
orbit number at epoch: 66933

The dashed part of the orbit path shows where the satellite is in the earth's shadow,  

DLR